Weather in Chesan

Russia / Republic of Buryatia     51°57′53″N   110°30′38″E
temp.,
°C
wind,
m/s
gust,
m/s
humid.,
%
clouds,
%
prec.,
mm/h
press.,
hPa
HPBL,
m
21 january, fri
fri2123:00−21nne1110076 0.0 10369
02:00−21nne1110091 0.1 103710
05:00−20nne009973 0.1 103710
08:00−20nne0110088 0.1 103810
11:00−16sw009181 0.1 1037135
14:00−14sw118597 0.1 1034291
17:00−19sw1110049 0.0 10369
20:00−23nne0010075 0.0 10389
22 january, sat
sat2223:00−24ne1110094 0.0 10399
02:00−25ne1110099 0.0 10409
05:00−26ne1110098 0.0 10419
08:00−26ne1110090 0.0 10419
11:00−19ene1193100 0.0 103991
14:00−14ene1185100 0.0 1035174
17:00−17nne1195100 0.0 10359
20:00−19nne119899 0.0 103711
23 january, sun
sun2323:00−18ne2197100 0.0 103717
02:00−17ne1296100 0.0 103535
05:00−19nne2296100 0.0 103642
08:00−18nne2295100 0.0 103659
11:00−16nne2284100 0.0 1035178
14:00−13nne2381100 0.0 1033316
17:00−14n2293100 0.1 103329
20:00−16n2296100 0.2 103433
24 january, mon
mon2423:00−17nne1296100 0.1 103528
02:00−18nne1196100 0.1 103519
05:00−19nne119798 0.0 103514
08:00−20nne1197100 0.0 103611
11:00−16nne008799 0.0 1035126
14:00−13sw118293 0.0 1033329
17:00−18sw119968 0.0 10349
20:00−23nw0010080 0.0 10379
25 january, tue
tue2523:00−24nnw0010094 0.0 10389
02:00−25nw01100100 0.1 10389
05:00−25w00100100 0.1 10389
08:00−26wsw0010096 0.1 10399
11:00−20sw129597 0.1 1037151
14:00−16sw238793 0.1 1034339
17:00−21sw119927 0.0 10359
20:00−24wnw0110082 0.0 10379